Back to catalog

SL-14 DEB

AlivePO
NORAD 45291·DEBRIS·🇷🇺 Russia

Launched Aug 15, 1991 from Plesetsk Cosmodrome

Loading…

Next Passes (next 24 hours)

TLE

FreshSource: Space-Track

Epoch: Sep 13, 2026, 22:54 UTC

1 45291U 91056AD  26256.95451355 -.00000201  00000-0 -60541-3 0  9994
2 45291  82.5427  95.1841 0037051  96.6095 263.9244 13.10980644314206

Track SL-14 DEB in real time with AllMySat

Download on the App Store